GW1523 Weather Reports


time (UTC)temp
C
wind
direction
speed
KPH
gust
KPH
rain 1hr
cm
rain 24hr
cm
rain mn
cm
humidity
%
barometer
mb
20260505041709 10 336 9.7 20.9 0.00 0.00 0.00 95 1011.5
20260505041209 10 311 11.3 20.9 0.00 0.00 0.00 95 1011.5
20260505040212 10 353 9.7 17.7 0.00 0.00 0.00 95 1011.8
20260505035710 10 301 11.3 17.7 0.00 0.00 0.00 95 1011.5
20260505035209 10 310 8.0 24.1 0.00 0.00 0.00 95 1011.7
20260505034709 10 348 8.0 24.1 0.00 0.00 0.00 95 1011.7
20260505033709 11 329 9.7 22.5 0.00 0.00 0.00 95 1011.7
20260505033209 10 332 8.0 22.5 0.00 0.00 0.00 95 1011.6
20260505032711 11 336 8.0 22.5 0.00 0.00 0.00 95 1011.8
20260505032209 11 347 16.1 22.5 0.00 0.00 0.00 95 1011.6
20260505031717 11 335 11.3 17.7 0.00 0.00 0.00 95 1011.9
20260505031210 11 307 9.7 17.7 0.00 0.00 0.00 95 1011.8
20260505030710 11 315 8.0 20.9 0.00 0.00 0.00 95 1011.9
20260505030211 11 336 8.0 20.9 0.00 0.00 0.00 95 1011.9
20260505025210 11 337 16.1 22.5 0.00 0.00 0.00 95 1011.9
20260505024709 11 346 9.7 22.5 0.00 0.00 0.00 95 1011.7
20260505024432 11 356 9.7 16.1 0.00 0.00 0.00 95 1011.8
20260505023709 11 325 8.0 16.1 0.00 0.00 0.00 95 1011.7
20260505023220 11 349 9.7 17.7 0.00 0.00 0.00 95 1011.7
20260505022710 11 327 11.3 17.7 0.00 0.00 0.00 95 1011.6
20260505022210 11 342 11.3 17.7 0.00 0.00 0.00 95 1011.8
20260505021927 11 298 9.7 22.5 0.00 0.00 0.00 95 1011.8
20260505021209 11 315 11.3 22.5 0.00 0.00 0.00 95 1011.8
20260505020659 11 349 11.3 22.5 0.00 0.00 0.00 95 1011.9
20260505020159 11 340 11.3 17.7 0.00 0.00 0.00 95 1011.7
20260505015659 11 341 9.7 20.9 0.00 0.00 0.00 95 1011.8
20260505014703 11 349 14.5 17.7 0.00 0.00 0.00 96 1011.5
20260505014416 11 331 11.3 22.5 0.00 0.00 0.00 96 1011.8
20260505013659 11 324 14.5 22.5 0.00 0.00 0.00 96 1011.5
20260505013203 11 345 11.3 22.5 0.00 0.00 0.00 96 1011.6
20260505012704 11 343 12.9 20.9 0.00 0.00 0.00 96 1011.9
20260505012425 11 331 9.7 20.9 0.00 0.00 0.00 96 1011.7
20260505011921 11 343 11.3 17.7 0.00 0.00 0.00 97 1011.8
20260505011427 11 331 11.3 20.9 0.00 0.00 0.00 96 1011.8
20260505010659 11 309 9.7 20.9 0.00 0.00 0.00 96 1011.7
20260505010200 11 307 14.5 20.9 0.00 0.00 0.00 97 1011.9
20260505005658 11 310 11.3 20.9 0.00 0.00 0.00 96 1011.7
20260505005158 11 328 8.0 16.1 0.00 0.00 0.00 96 1011.9
20260505004659 11 320 8.0 16.1 0.00 0.00 0.00 96 1012.1
20260505004426 11 347 9.7 17.7 0.00 0.00 0.00 96 1012.2
20260505003659 11 330 11.3 17.7 0.00 0.00 0.00 96 1012.0
20260505003207 11 315 14.5 20.9 0.00 0.00 0.00 97 1012.1
20260505002700 11 306 6.4 20.9 0.00 0.00 0.00 97 1012.3
20260505002426 11 303 11.3 16.1 0.00 0.00 0.00 97 1012.3
20260505001700 11 316 6.4 14.5 0.00 0.00 0.00 97 1012.4
20260505001158 11 315 9.7 14.5 0.00 0.00 0.00 97 1012.5
20260505000659 11 309 8.0 22.5 0.00 0.00 0.00 97 1012.5
20260505000204 11 313 14.5 22.5 0.00 0.00 0.00 97 1012.5
20260504235658 11 324 9.7 22.5 0.00 0.00 0.00 97 1012.5
20260504235424 11 317 11.3 17.7 0.00 0.00 0.00 97 1012.6
20260504234708 11 304 9.7 17.7 0.00 0.00 0.00 97 1012.6
20260504234422 11 314 8.0 17.7 0.00 0.00 0.00 97 1012.6
20260504233925 11 313 6.4 16.1 0.00 0.00 0.00 97 1012.5
20260504233203 11 296 6.4 16.1 0.00 0.00 0.00 97 1012.7
20260504232700 11 335 6.4 16.1 0.00 0.00 0.00 97 1012.6
20260504232159 11 307 11.3 16.1 0.00 0.00 0.00 97 1012.6
20260504231659 11 319 9.7 16.1 0.00 0.00 0.00 97 1012.7
20260504231201 11 285 6.4 14.5 0.00 0.00 0.00 97 1012.8
20260504230647 11 2 6.4 16.1 0.00 0.00 0.00 97 1012.7
20260504230150 11 316 8.0 16.1 0.00 0.00 0.00 97 1012.7
20260504225650 11 337 9.7 16.1 0.00 0.00 0.00 97 1012.6
20260504225155 11 290 11.3 16.1 0.00 0.00 0.00 97 1012.8
20260504224650 11 327 9.7 22.5 0.00 0.00 0.00 97 1012.7
20260504224155 11 338 9.7 22.5 0.00 0.00 0.00 97 1012.9
20260504223650 11 347 16.1 22.5 0.00 0.00 0.00 96 1012.8
20260504223149 11 281 12.9 22.5 0.00 0.00 0.00 97 1012.8
20260504222649 11 336 8.0 25.7 0.00 0.00 0.00 96 1012.9
20260504222150 11 320 12.9 25.7 0.00 0.00 0.00 96 1012.9
20260504221650 11 349 9.7 24.1 0.00 0.00 0.00 96 1012.9
20260504221148 11 325 9.7 24.1 0.00 0.00 0.00 96 1012.9
20260504220921 11 341 12.9 30.6 0.00 0.00 0.00 96 1013.0
20260504220149 11 346 20.9 30.6 0.00 0.00 0.00 96 1013.0
20260504215911 11 336 17.7 27.4 0.00 0.00 0.00 97 1012.9
20260504215150 11 341 14.5 22.5 0.00 0.00 0.00 97 1013.1
20260504214653 11 321 9.7 24.1 0.00 0.00 0.00 97 1012.9
20260504214147 11 328 14.5 24.1 0.00 0.00 0.00 97 1013.1
20260504213913 11 321 17.7 22.5 0.00 0.00 0.00 96 1013.1
20260504213148 11 311 11.3 17.7 0.00 0.00 0.00 97 1013.3
20260504212650 11 335 9.7 16.1 0.00 0.00 0.00 96 1013.2
20260504212148 11 314 6.4 16.1 0.00 0.00 0.00 96 1013.2
20260504211649 11 329 11.3 17.7 0.00 0.00 0.00 96 1013.1
20260504211149 11 298 6.4 17.7 0.00 0.00 0.00 96 1013.4
20260504210649 11 330 8.0 14.5 0.00 0.00 0.00 96 1013.4
20260504210158 11 319 6.4 11.3 0.00 0.00 0.00 96 1013.5
20260504205650 11 337 3.2 14.5 0.00 0.00 0.00 96 1013.5
20260504205148 11 310 3.2 22.5 0.00 0.00 0.00 96 1013.2
20260504204650 11 354 12.9 20.9 0.00 0.00 0.00 96 1013.4
20260504204149 11 308 6.4 17.7 0.00 0.00 0.00 96 1013.3
20260504203933 11 296 6.4 17.7 0.00 0.00 0.00 95 1013.5
20260504203420 11 315 9.7 16.1 0.00 0.00 0.00 95 1013.2
20260504202649 12 307 6.4 14.5 0.00 0.00 0.00 95 1013.3
20260504202149 12 311 6.4 12.9 0.00 0.00 0.00 95 1013.3
20260504201651 12 315 4.8 16.1 0.00 0.00 0.00 95 1013.4
20260504201151 12 305 9.7 16.1 0.00 0.00 0.00 95 1013.3
20260504200651 12 321 4.8 17.7 0.00 0.00 0.00 95 1013.2
20260504200150 12 320 4.8 20.9 0.00 0.00 0.00 94 1013.3
20260504195649 12 338 8.0 24.1 0.00 0.00 0.00 94 1013.1
20260504195150 12 331 9.7 25.7 0.00 0.00 0.00 94 1013.2
20260504194651 12 318 11.3 25.7 0.00 0.00 0.00 94 1013.2
20260504194151 12 335 12.9 29.0 0.00 0.00 0.00 94 1013.0
20260504193651 12 338 14.5 29.0 0.00 0.00 0.00 94 1012.8
20260504193151 12 350 17.7 30.6 0.00 0.00 0.00 94 1012.8
20260504192648 12 336 14.5 30.6 0.00 0.00 0.00 95 1012.7
20260504192150 12 344 20.9 29.0 0.00 0.00 0.00 95 1012.9
20260504191648 12 342 16.1 29.0 0.00 0.00 0.00 94 1012.7
20260504191149 12 347 17.7 27.4 0.00 0.00 0.00 94 1013.0
20260504190649 12 343 16.1 25.7 0.00 0.00 0.00 94 1012.7
20260504190150 12 331 14.5 25.7 0.00 0.00 0.00 94 1012.7
20260504185910 12 331 12.9 24.1 0.00 0.00 0.00 94 1012.6
20260504185149 12 329 11.3 24.1 0.00 0.00 0.00 94 1012.6
20260504184650 13 318 14.5 24.1 0.00 0.00 0.00 94 1012.8
20260504184150 13 349 8.0 25.7 0.00 0.00 0.00 94 1012.8
20260504183655 13 343 17.7 25.7 0.00 0.00 0.00 94 1012.7
20260504183409 13 327 16.1 25.7 0.00 0.00 0.00 94 1012.7
20260504182656 13 336 17.7 24.1 0.00 0.00 0.00 93 1012.4
20260504182148 13 355 6.4 24.1 0.00 0.00 0.00 94 1012.5
20260504181649 13 357 16.1 25.7 0.00 0.00 0.00 93 1012.3
20260504181150 13 346 17.7 27.4 0.00 0.00 0.00 93 1012.4
20260504180649 13 308 12.9 27.4 0.00 0.00 0.00 92 1012.2
20260504180149 13 314 20.9 27.4 0.00 0.00 0.00 91 1012.4
20260504175649 13 351 9.7 37.0 0.00 0.00 0.00 91 1012.2
20260504175149 14 312 17.7 37.0 0.00 0.00 0.00 90 1012.1
20260504174648 14 318 16.1 30.6 0.00 0.00 0.00 90 1012.5
20260504174155 15 317 9.7 30.6 0.00 0.00 0.00 90 1012.3
20260504173151 15 8 11.3 29.0 0.00 0.00 0.00 90 1012.5
20260504172909 15 325 14.5 29.0 0.00 0.00 0.00 89 1012.2
20260504172149 16 350 17.7 29.0 0.00 0.03 0.00 89 1012.2
20260504171909 16 323 16.1 29.0 0.00 0.03 0.00 88 1012.3
20260504171150 16 354 20.9 29.0 0.00 0.03 0.00 87 1012.2
20260504170649 16 314 14.5 24.1 0.00 0.03 0.00 87 1012.4
20260504170149 17 337 14.5 24.1 0.00 0.03 0.00 87 1012.1
20260504160145 18 11 4.8 16.1 0.00 0.18 0.00 78 1011.9
20260504151133 18 60 4.8 11.3 0.00 1.35 0.00 75 1012.1
20260504150634 18 13 6.4 12.9 0.00 1.42 0.00 74 1012.1
20260504150134 18 61 6.4 12.9 0.00 1.42 0.00 73 1012.2
20260504141130 18 262 3.2 4.8 0.00 1.42 0.00 76 1012.8
20260504140852 18 240 1.6 6.4 0.00 1.42 0.00 74 1012.7
20260504140131 18 251 3.2 6.4 0.00 1.42 0.00 74 1012.6
20260504130630 17 76 0.0 3.2 0.00 1.42 0.00 79 1013.1
20260504130130 17 127 0.0 6.4 0.00 1.42 0.00 79 1013.3
20260504120130 17 71 6.4 9.7 0.00 1.42 0.00 77 1013.2
20260504110618 17 143 1.6 9.7 0.00 1.42 0.00 79 1013.5
20260504110354 17 120 1.6 9.7 0.00 1.42 0.00 78 1013.6
20260504100614 17 106 6.4 11.3 0.00 1.42 0.00 79 1013.6
20260504100117 17 175 1.6 4.8 0.00 1.42 0.00 77 1013.7
20260504090117 16 174 0.0 9.7 0.00 1.42 0.00 79 1013.6
20260504081617 15 188 0.0 0.0 0.00 1.42 0.00 88 1013.4
20260504081118 15 207 0.0 1.6 0.00 1.45 0.00 91 1013.5
20260504080624 15 229 0.0 3.2 0.00 1.45 0.00 91 1013.3
20260504080117 15 229 1.6 3.2 0.00 1.45 0.00 91 1013.3
20260504070117 13 250 3.2 3.2 0.00 1.75 0.00 97 1013.3
20260504060117 12 231 3.2 4.8 0.00 1.83 0.00 98 1012.6
20260504050619 11 195 1.6 3.2 0.00 1.83 0.00 97 1012.5
20260504050341 11 195 1.6 1.6 0.00 1.83 0.00 97 1012.3
20260504045616 11 195 0.0 3.2 0.00 1.83 0.00 97 1012.2